Weather History for KCUB - September, 2013

Change the Weather History Date:

Sunday, September 15, 2013

  Actual Average Record
Temperature  
Mean Temperature 78 °F 76 °F  
Max Temperature 89 °F 86 °F - ()
Min Temperature 66 °F 67 °F - ()
Degree Days  
Heating Degree Days 0 0  
Month to date heating degree days 0 0  
Since 1 July heating degree days 0 0  
Cooling Degree Days 13 11  
Month to date cooling degree days 239 194  
Year to date cooling degree days 1967 2012  
Growing Degree Days 27 (Base 50)    
Moisture  
Dew Point 64 °F    
Average Humidity 67    
Maximum Humidity 82    
Minimum Humidity 46    
Precipitation  
Precipitation 0.00 in 0.16 in - ()
Month to date precipitation 0.02 2.13  
Year to date precipitation 42.91 33.98  
Sea Level Pressure  
Sea Level Pressure 30.13 in    
Wind  
Wind Speed 2 mph (East)    
Max Wind Speed 8 mph    
Max Gust Speed 12 mph    
Visibility 10 miles    
Events      
T = Trace of Precipitation, MM = Missing Value Source: NWS Daily Summary

Daily Weather History Graph

Daily Weather History Graph

Search for Another Location

Airport or City:

Trip Planner

Search our weather history database for the weather conditions in past years. The results will help you decide how hot, cold, wet, or windy it might be!

Date:

Astronomy

Sep. 15, 2013 Rise Set
Actual Time 7:07 AM EDT 7:30 PM EDT
Civil Twilight 6:42 AM EDT 7:55 PM EDT
Nautical Twilight 6:12 AM EDT 8:24 PM EDT
Astronomical Twilight 5:43 AM EDT 8:54 PM EDT
Moon 4:48 PM EDT (9/15) 2:53 AM EDT (9/15)
Length of Visible Light 13h 12m
Length of Day
12h 22m
Waxing Gibbous, 82% of the Moon is Illuminated
Sep 15
Waxing Gibbous
Sep 19
Full
Sep 26
Last Quarter
Oct 4
New
Oct 11
First Quarter

Hourly Weather History & Observations

Time (EDT) Temp. Heat Index Dew Point Humidity Pressure Visibility Wind Dir Wind Speed Gust Speed Precip Events Conditions
12:53 AM 71.1 °F - 60.1 °F 68% 30.11 in 10.0 mi Calm Calm - N/A   Mostly Cloudy
1:53 AM 70.0 °F - 60.1 °F 71% 30.11 in 10.0 mi Calm Calm - N/A   Mostly Cloudy
2:53 AM 69.1 °F - 60.1 °F 73% 30.11 in 10.0 mi Calm Calm - N/A   Clear
3:53 AM 68.0 °F - 60.1 °F 76% 30.11 in 10.0 mi Variable 4.6 mph - N/A   Scattered Clouds
4:01 AM 68.0 °F - 59.0 °F 73% 30.12 in 10.0 mi ENE 4.6 mph - N/A   Mostly Cloudy
4:53 AM 68.0 °F - 59.0 °F 73% 30.13 in 10.0 mi Variable 3.5 mph - N/A   Mostly Cloudy
5:30 AM 66.2 °F - 59.0 °F 78% 30.14 in 10.0 mi ENE 4.6 mph - N/A   Scattered Clouds
5:53 AM 66.9 °F - 59.0 °F 76% 30.14 in 10.0 mi Variable 3.5 mph - N/A   Partly Cloudy
6:53 AM 66.0 °F - 57.9 °F 75% 30.16 in 10.0 mi Calm Calm - N/A   Scattered Clouds
7:53 AM 66.0 °F - 59.0 °F 78% 30.17 in 10.0 mi ENE 3.5 mph - N/A   Mostly Cloudy
8:53 AM 70.0 °F - 61.0 °F 73% 30.18 in 10.0 mi Calm Calm - N/A   Clear
9:53 AM 75.0 °F - 64.0 °F 69% 30.19 in 10.0 mi Variable 3.5 mph - N/A   Scattered Clouds
10:53 AM 79.0 °F - 66.0 °F 64% 30.19 in 10.0 mi Variable 3.5 mph - N/A   Clear
11:53 AM 82.9 °F 85.8 °F 68.0 °F 60% 30.19 in 10.0 mi Variable 3.5 mph - N/A   Scattered Clouds
12:53 PM 82.9 °F 85.8 °F 68.0 °F 60% 30.17 in 10.0 mi Variable 4.6 mph - N/A   Scattered Clouds
1:53 PM 86.0 °F 88.8 °F 66.9 °F 53% 30.15 in 10.0 mi East 4.6 mph - N/A   Mostly Cloudy
2:53 PM 86.0 °F 87.3 °F 64.0 °F 48% 30.12 in 10.0 mi SSE 4.6 mph - N/A   Mostly Cloudy
3:53 PM 87.1 °F 88.9 °F 64.9 °F 48% 30.11 in 10.0 mi Variable 3.5 mph - N/A   Mostly Cloudy
4:53 PM 88.0 °F 89.3 °F 64.0 °F 45% 30.09 in 10.0 mi Calm Calm - N/A   Partly Cloudy
5:53 PM 87.1 °F 89.2 °F 66.0 °F 49% 30.09 in 10.0 mi Variable 5.8 mph - N/A   Clear
6:53 PM 84.9 °F 87.6 °F 66.9 °F 55% 30.09 in 10.0 mi Calm Calm - N/A   Clear
7:53 PM 81.0 °F 84.1 °F 69.1 °F 67% 30.10 in 10.0 mi Calm Calm - N/A   Scattered Clouds
8:53 PM 81.0 °F 84.1 °F 69.1 °F 67% 30.12 in 10.0 mi Variable 4.6 mph - N/A   Mostly Cloudy
9:53 PM 79.0 °F - 70.0 °F 74% 30.13 in 10.0 mi Calm Calm - N/A   Mostly Cloudy
10:53 PM 77.0 °F - 71.1 °F 82% 30.14 in 10.0 mi Calm Calm - N/A   Overcast
11:53 PM 77.0 °F - 72.0 °F 84% 30.13 in 10.0 mi SSE 3.5 mph - N/A   Mostly Cloudy